Meteo Giornale » Osservazioni meteo Lettonia » Riga

ore: 20:50 - Osservazioni Meteo Riga
Lat. 56° 55' N Lon. 23° 58' E Alt. 10 metri s.l.m.

sereno

17 °C

Sereno

Temp. 24 Ore

15 °C

23 °C

Nord

1.8 Km/h

Dew point 15 °C

Umidità 88 %

Visibilità  10 Km

Il sole sorge alle ore 06:24

Il sole tramonta alle ore 20:24

Data e Ora Cielo e Fenomeni T °C DP °C Um. % Pres. hPa Vis. km Vento km/h
Oggi h: 20:50 sereno Sereno 17 15 88 1011 10 N 1.8
Oggi h: 20:20 sereno Sereno 18 15 82 1011 10 N 1.8
Oggi h: 19:50 poco_nuvoloso Poco Nuvoloso 19 16 82 1010 10 N 0
Oggi h: 19:20 poco_nuvoloso Poco Nuvoloso 20 14 68 1010 10 N 0
Oggi h: 18:50 poco_nuvoloso Poco Nuvoloso 21 14 64 1011 10 SO 7.4
Oggi h: 18:20 poco_nuvoloso Poco Nuvoloso 22 13 56 1011 10 O/SO 11.1
Oggi h: 17:50 nuvoloso Nuvoloso 22 14 60 1011 10 SO 14.8
Oggi h: 17:20 poco_nuvoloso Poco Nuvoloso 23 14 56 1011 10 SO 14.8
Oggi h: 16:50 nuvoloso Nuvoloso 22 13 56 1011 10 SO 13
Oggi h: 16:20 nuvoloso Nuvoloso 23 14 56 1011 10 SO 14.8
Oggi h: 15:50 nuvoloso Nuvoloso 22 14 60 1011 10 SO 16.7
Oggi h: 15:20 nuvoloso Nuvoloso 23 15 60 1011 10 SO 16.7
Oggi h: 14:50 nuvoloso Nuvoloso 23 16 64 1011 10 SO 14.8
Oggi h: 14:20 molto_nuvoloso Molto Nuvoloso 21 16 73 1011 10 SO 16.7
Oggi h: 13:50 molto_nuvoloso Molto Nuvoloso 21 16 73 1011 10 SO 20.3
Oggi h: 13:20 nuvoloso Nuvoloso 21 16 73 1011 10 SO 20.3
Oggi h: 12:50 molto_nuvoloso Molto Nuvoloso 21 16 73 1010 10 S/SO 18.5
Oggi h: 12:20 molto_nuvoloso Molto Nuvoloso 21 16 73 1010 10 S/SO 20.3
Oggi h: 11:50 molto_nuvoloso Molto Nuvoloso 21 16 73 1010 10 SO 16.7
Oggi h: 11:20 molto_nuvoloso Molto Nuvoloso 20 16 77 1010 10 S/SO 16.7
Oggi h: 10:50 molto_nuvoloso Molto Nuvoloso 20 16 77 1010 10 S/SO 16.7
Oggi h: 10:20 molto_nuvoloso Molto Nuvoloso 20 16 77 1010 10 S/SO 16.7
Oggi h: 09:50 molto_nuvoloso Molto Nuvoloso 19 16 82 1010 10 S/SO 20.3
Oggi h: 09:20 nuvoloso Nuvoloso 19 16 82 1010 10 S/SO 14.8
Oggi h: 08:50 poco_nuvoloso Poco Nuvoloso 18 16 88 1009 10 S/SO 14.8
Oggi h: 08:20 sereno Sereno 17 16 93 1009 10 S 14.8
Oggi h: 07:50 sereno Sereno 16 15 93 1009 10 S 14.8
Oggi h: 07:20 sereno Sereno 16 15 93 1009 10 S 16.7
Oggi h: 06:50 sereno Sereno 15 14 93 1009 10 S 13
Oggi h: 06:20 sereno Sereno 15 15 100 1009 10 S 13
Oggi h: 05:50 sereno Sereno 16 15 93 1009 10 S 13
Oggi h: 05:20 nuvoloso Nuvoloso 16 15 93 1009 10 S 13
Oggi h: 04:50 nuvoloso Nuvoloso 16 16 100 1009 10 S 14.8
Oggi h: 04:20 nuvoloso_piovaschi Pioggia 17 16 93 1009 10 S 16.7
Oggi h: 03:50 nuvoloso_piovaschi Pioggia 17 16 93 1009 10 S 16.7
Oggi h: 03:20 nuvoloso_piovaschi Pioggia 17 16 93 1010 10 S 13
Oggi h: 02:50 molto_nuvoloso Molto Nuvoloso 18 16 88 1010 10 S 13
Oggi h: 02:20 molto_nuvoloso Molto Nuvoloso 18 16 88 1010 10 S/SO 13
Oggi h: 01:50 poco_nuvoloso Poco Nuvoloso 18 16 88 1010 10 S 14.8
Oggi h: 01:20 poco_nuvoloso Poco Nuvoloso 17 15 88 1010 10 S/SE 13
Oggi h: 00:50 nuvoloso_piovaschi Pioggia 18 16 88 1010 10 S/SE 14.8
Oggi h: 00:20 sereno Sereno 19 15 77 1011 10 S 14.8
Ieri h: 23:50 sereno Sereno 18 15 82 1011 10 S 16.7
Ieri h: 23:20 sereno Sereno 18 16 88 1011 10 S 14.8
Ieri h: 22:50 poco_nuvoloso Poco Nuvoloso 18 16 88 1011 10 S 9.3
Ieri h: 22:20 nuvoloso Nuvoloso 18 16 88 1011 10 N 5.5
Ieri h: 21:50 nuvoloso_piovaschi Pioggia 19 16 82 1011 10 O/SO 7.4